Tracking 22130 objects as of 21-Jan-2021
HD Live streaming from Space Station
objects crossing your sky now

STARLINK-1244

Track STARLINK-1244 now!
10-day predictions
STARLINK-1244 is classified as:


NORAD ID: 45196
Int'l Code: 2020-012U
Perigee: 553.0 km
Apogee: 555.8 km
Inclination: 53.1 °
Period: 95.6 minutes
Semi major axis: 6925 km
RCS: Unknown
Launch date: February 17, 2020
Source: United States (US)
Launch site: AIR FORCE EASTERN TEST RANGE (AFETR)
aabbcc
Your satellite tracking list
Your tracking list is empty




NASA's NSSDC Master Catalog

Two Line Element Set (TLE):
1 45196U 20012U   21021.50509501  .00000070  00000-0  23640-4 0  9997
2 45196  53.0564 175.6487 0002070  96.3420 263.7804 15.06381995 52555
Source of the keplerian elements: AFSPC